Location: Park Creek Village Mobile Home Park
(38.2885°N, 122.4714°W)
Time: 17:31:38
(UTC+00:00)

Cosmos 1844 - Pass Details

Date: 14 December 2019
Orbit: 824 x 867 km, 70.9° (Epoch: 19 January)

Event Time Altitude Azimuth Distance (km) Brightness Sun altitude
Rises 14:37:58 0° 223° (SW) 3,436 6.7 -8.0°
Reaches altitude 10° 14:40:36 10° 231° (SW) 2,503 5.9 -7.5°
Maximum altitude 14:45:57 39° 299° (WNW) 1,285 4.2 -6.6°
Drops below altitude 10° 14:51:19 10° 7° (N) 2,506 6.0 -5.6°
Sets 14:53:57 0° 16° (NNE) 3,441 6.8 -5.1°
